Weather History for Topeka, KS

Change the Weather History Date:

Wednesday, June 13, 2012

  Actual Average Record
Temperature  
Mean Temperature 75 °F 74 °F  
Max Temperature 90 °F 84 °F 107 °F (1953)
Min Temperature 59 °F 63 °F 44 °F (1985)
Degree Days  
Heating Degree Days 0 0  
Month to date heating degree days 9 6  
Since 1 June heating degree days 9 6  
Since 1 July heating degree days 3795 5019  
Cooling Degree Days 10 9  
Month to date cooling degree days 114 96  
Year to date cooling degree days 432 222  
Since 1 June cooling degree days 114 96  
Growing Degree Days 24 (Base 50)    
Moisture  
Dew Point 57 °F    
Average Humidity 58    
Maximum Humidity 84    
Minimum Humidity 31    
Precipitation  
Precipitation 0.00 in 0.19 in 2.59 in (2010)
Month to date precipitation 0.18 2.35  
Year to date precipitation 11.43 15.46  
Snow  
Snow 0.00 in 0.00 in 0.00 in ()
Month to date snowfall 0.0 0.0  
Year to date snowfall 3.0 11.3  
Since 1 July snowfall 3.1 17.8  
Snow Depth 0.00 in    
Sea Level Pressure  
Sea Level Pressure 29.98 in    
Wind  
Wind Speed 9 mph (SE)    
Max Wind Speed 20 mph    
Max Gust Speed 29 mph    
Visibility 10 miles    
Events      
T = Trace of Precipitation, MM = Missing Value Source: NWS Daily Summary

Daily Weather History Graph

Daily Weather History Graph

Search for Another Location

Airport:

Trip Planner

Search our weather history database for the weather conditions in past years. The results will help you decide how hot, cold, wet, or windy it might be!

Date:

Astronomy

Jun. 13, 2012 Rise Set
Actual Time 5:56 AM CDT 8:49 PM CDT
Civil Twilight 5:23 AM CDT 9:21 PM CDT
Nautical Twilight 4:43 AM CDT 10:02 PM CDT
Astronomical Twilight 3:56 AM CDT 10:48 PM CDT
Moon 2:07 AM CDT (6/13) 3:38 PM CDT (6/13)
Length of Visible Light 15h 57m
Length of Day
14h 53m
Waning Crescent, 29% of the Moon is Illuminated
Jun 13
Waning Crescent
Jun 19
New
Jun 26
First Quarter
Jul 3
Full
Jul 10
Last Quarter

Hourly Weather History & Observations

Time (CDT) Temp. Heat Index Dew Point Humidity Pressure Visibility Wind Dir Wind Speed Gust Speed Precip Events Conditions
12:53 AM 63.0 °F - 55.9 °F 78% 30.10 in 10.0 mi Calm Calm - N/A   Clear
1:53 AM 64.0 °F - 55.9 °F 75% 30.11 in 10.0 mi Calm Calm - N/A   Clear
2:53 AM 62.1 °F - 55.9 °F 80% 30.09 in 10.0 mi Calm Calm - N/A   Clear
3:53 AM 62.1 °F - 55.0 °F 78% 30.07 in 10.0 mi Calm Calm - N/A   Clear
4:53 AM 61.0 °F - 55.0 °F 81% 30.06 in 10.0 mi ENE 4.6 mph - N/A   Clear
5:53 AM 60.8 °F - 53.6 °F 77% 30.08 in 10.0 mi East 4.6 mph - N/A   Clear
6:53 AM 63.0 °F - 52.0 °F 67% 30.05 in 10.0 mi ESE 10.4 mph - N/A   Clear
7:53 AM 66.9 °F - 52.0 °F 59% 30.05 in 10.0 mi SE 9.2 mph - N/A   Clear
8:53 AM 72.0 °F - 51.1 °F 48% 30.04 in 10.0 mi SSE 12.7 mph - N/A   Clear
9:53 AM 75.9 °F - 52.0 °F 43% 30.03 in 10.0 mi SSE 13.8 mph - N/A   Clear
10:53 AM 80.1 °F - 51.1 °F 36% 30.02 in 10.0 mi SE 15.0 mph - N/A   Clear
11:53 AM 82.9 °F - 52.0 °F 34% 30.01 in 10.0 mi SE 15.0 mph 19.6 mph N/A   Clear
12:53 PM 84.9 °F 83.2 °F 53.1 °F 33% 29.98 in 10.0 mi SE 13.8 mph 19.6 mph N/A   Clear
1:53 PM 87.1 °F 85.1 °F 54.0 °F 32% 29.95 in 10.0 mi South 13.8 mph 20.7 mph N/A   Scattered Clouds
2:53 PM 87.1 °F 85.9 °F 57.0 °F 36% 29.92 in 10.0 mi SE 12.7 mph 18.4 mph N/A   Mostly Cloudy
3:53 PM 87.1 °F 87.5 °F 62.1 °F 43% 29.91 in 10.0 mi SE 9.2 mph - N/A   Mostly Cloudy
4:53 PM 88.0 °F 88.7 °F 63.0 °F 43% 29.89 in 10.0 mi South 13.8 mph 18.4 mph N/A   Scattered Clouds
5:53 PM 89.1 °F 89.3 °F 62.1 °F 40% 29.88 in 10.0 mi South 10.4 mph - N/A   Scattered Clouds
6:53 PM 88.0 °F 88.4 °F 62.1 °F 42% 29.86 in 10.0 mi SSE 11.5 mph - N/A   Scattered Clouds
7:53 PM 86.0 °F 86.3 °F 62.1 °F 44% 29.86 in 10.0 mi SSE 10.4 mph - N/A   Clear
8:53 PM 82.0 °F 83.4 °F 64.0 °F 54% 29.86 in 10.0 mi SE 8.1 mph - N/A   Scattered Clouds
9:53 PM 80.1 °F 81.9 °F 64.9 °F 60% 29.88 in 10.0 mi SE 10.4 mph - N/A   Clear
10:53 PM 79.0 °F - 64.9 °F 62% 29.91 in 10.0 mi SSE 11.5 mph - N/A   Scattered Clouds
11:53 PM 77.0 °F - 64.0 °F 64% 29.91 in 10.0 mi SE 8.1 mph - N/A   Clear